GW0451 Weather Reports


time (UTC)temp
F
wind
direction
speed
knots
gust
knots
rain 1hr
in
rain 24hr
in
rain mn
in
humidity
%
barometer
mb
20260504215041 75 211 4.3 9.6 0.00 0.00 0.00 34 1006.8
20260504214546 75 163 2.6 10.4 0.00 0.00 0.00 34 1007.0
20260504214043 74 167 3.5 10.4 0.00 0.00 0.00 34 1007.0
20260504213539 74 286 6.1 12.2 0.00 0.00 0.00 33 1007.0
20260504213049 74 243 6.1 12.2 0.00 0.00 0.00 33 1007.0
20260504212542 74 244 3.5 12.2 0.00 0.00 0.00 34 1007.1
20260504212039 74 163 5.2 12.2 0.00 0.00 0.00 35 1007.1
20260504211633 74 163 4.3 9.6 0.00 0.00 0.00 33 1007.0
20260504211108 74 219 5.2 16.5 0.00 0.00 0.00 34 1007.2
20260504210615 74 235 3.5 16.5 0.00 0.00 0.00 34 1007.2
20260504210053 75 234 3.5 13.9 0.00 0.00 0.00 34 1007.2
20260504205538 74 223 5.2 10.4 0.00 0.00 0.00 34 1007.3
20260504205039 74 147 2.6 13.0 0.00 0.00 0.00 35 1007.2
20260504204549 74 213 4.3 13.0 0.00 0.00 0.00 35 1007.3
20260504204039 74 153 6.1 11.3 0.00 0.00 0.00 34 1007.4
20260504203539 74 149 4.3 13.0 0.00 0.00 0.00 35 1007.5
20260504203044 74 215 5.2 14.8 0.00 0.00 0.00 35 1007.5
20260504202540 74 196 3.5 14.8 0.00 0.00 0.00 36 1007.5
20260504202040 74 211 6.1 13.9 0.00 0.00 0.00 36 1007.7
20260504201555 73 281 6.1 13.0 0.00 0.00 0.00 35 1007.8
20260504201039 74 153 5.2 13.0 0.00 0.00 0.00 35 1007.9
20260504200539 73 230 3.5 14.8 0.00 0.00 0.00 35 1007.9
20260504200052 73 154 5.2 14.8 0.00 0.00 0.00 35 1008.1
20260504195538 74 225 6.1 11.3 0.00 0.00 0.00 35 1008.2
20260504195039 74 193 2.6 11.3 0.00 0.00 0.00 36 1008.1
20260504194551 73 120 4.3 13.9 0.00 0.00 0.00 36 1008.2
20260504194040 73 182 3.5 13.9 0.00 0.00 0.00 36 1008.3
20260504193540 73 195 4.3 14.8 0.00 0.00 0.00 36 1008.3
20260504193047 73 190 5.2 14.8 0.00 0.00 0.00 35 1008.5
20260504192539 73 254 5.2 14.8 0.00 0.00 0.00 35 1008.3
20260504192039 73 213 6.1 13.9 0.00 0.00 0.00 35 1008.6
20260504191606 73 173 4.3 12.2 0.00 0.00 0.00 35 1008.5
20260504191039 73 196 4.3 12.2 0.00 0.00 0.00 37 1008.7
20260504190539 73 209 3.5 13.0 0.00 0.00 0.00 37 1008.7
20260504190054 73 211 5.2 13.0 0.00 0.00 0.00 35 1008.8
20260504185539 72 201 4.3 13.9 0.00 0.00 0.00 37 1008.9
20260504185039 72 258 3.5 13.9 0.00 0.00 0.00 36 1008.9
20260504184554 72 225 6.1 13.9 0.00 0.00 0.00 37 1009.0
20260504184040 72 236 4.3 9.6 0.00 0.00 0.00 37 1009.0
20260504183539 72 205 3.5 9.6 0.00 0.00 0.00 37 1009.0
20260504183048 72 248 5.2 9.6 0.00 0.00 0.00 38 1009.0
20260504182540 71 199 3.5 9.6 0.00 0.00 0.00 37 1009.2
20260504182038 71 251 3.5 10.4 0.00 0.00 0.00 38 1009.2
20260504181558 71 261 4.3 10.4 0.00 0.00 0.00 38 1009.4
20260504181040 71 249 3.5 10.4 0.00 0.00 0.00 38 1009.4
20260504180539 70 220 4.3 12.2 0.00 0.00 0.00 38 1009.4
20260504180053 70 119 3.5 13.0 0.00 0.00 0.00 38 1009.6
20260504175539 70 209 6.1 13.0 0.00 0.00 0.00 38 1009.8
20260504175039 70 234 3.5 13.0 0.00 0.00 0.00 39 1009.8
20260504174548 69 257 6.1 13.0 0.00 0.00 0.00 39 1009.7
20260504174039 69 229 3.5 14.8 0.00 0.00 0.00 39 1009.8
20260504173538 69 111 6.1 15.6 0.00 0.00 0.00 38 1009.7
20260504173050 69 153 7.8 15.6 0.00 0.00 0.00 38 1009.8
20260504172539 69 227 2.6 10.4 0.00 0.00 0.00 40 1009.8
20260504172039 69 257 3.5 12.2 0.00 0.00 0.00 39 1009.9
20260504171546 69 144 6.1 13.0 0.00 0.00 0.00 39 1010.0
20260504171039 68 273 5.2 13.0 0.00 0.00 0.00 38 1010.0
20260504170539 68 174 4.3 10.4 0.00 0.00 0.00 37 1010.0
20260504151042 63 282 5.2 13.9 0.00 0.00 0.00 41 1011.7
20260504150542 63 219 4.3 11.3 0.00 0.00 0.00 41 1011.6
20260504141039 60 185 4.3 11.3 0.00 0.00 0.00 41 1011.9
20260504140539 60 184 4.3 11.3 0.00 0.00 0.00 41 1011.9
20260504130539 48 257 0.9 7.0 0.00 0.00 0.00 65 1012.4
20260504110537 34 0 0.0 1.7 0.00 0.00 0.00 89 1012.8
20260504100537 34 0 0.0 1.7 0.00 0.00 0.00 87 1012.8
20260504081550 35 0 0.0 0.0 0.00 0.00 0.00 86 1013.1
20260504081040 35 0 0.0 0.0 0.00 0.00 0.00 85 1013.1
20260504080611 35 0 0.0 0.0 0.00 0.00 0.00 85 1013.1
20260504050537 38 0 0.0 0.0 0.00 0.00 0.00 80 1013.5
20260504045539 38 0 0.0 0.0 0.00 0.00 0.00 80 1013.4
20260504045039 39 0 0.0 0.0 0.00 0.00 0.00 80 1013.5
20260504044545 39 0 0.0 0.0 0.00 0.00 0.00 79 1013.5
20260504044039 39 0 0.0 0.0 0.00 0.00 0.00 79 1013.4
20260504043539 39 0 0.0 0.0 0.00 0.00 0.00 79 1013.5
20260504043051 39 0 0.0 0.0 0.00 0.00 0.00 79 1013.5
20260504042539 39 0 0.0 0.0 0.00 0.00 0.00 79 1013.4
20260504042039 39 0 0.0 0.0 0.00 0.00 0.00 79 1013.4
20260504041551 40 0 0.0 0.0 0.00 0.00 0.00 78 1013.4
20260504041036 40 0 0.0 0.0 0.00 0.00 0.00 78 1013.4
20260504040536 40 0 0.0 0.0 0.00 0.00 0.00 78 1013.3
20260504040131 40 0 0.0 0.0 0.00 0.00 0.00 77 1013.2
20260504035539 40 0 0.0 0.0 0.00 0.00 0.00 77 1013.3
20260504035037 41 0 0.0 0.0 0.00 0.00 0.00 76 1013.2
20260504034556 41 0 0.0 0.0 0.00 0.00 0.00 76 1013.0
20260504034036 41 0 0.0 0.0 0.00 0.00 0.00 76 1013.0
20260504033536 41 0 0.0 0.0 0.00 0.00 0.00 76 1013.0
20260504033052 41 0 0.0 0.0 0.00 0.00 0.00 75 1012.9
20260504032541 41 0 0.0 0.0 0.00 0.00 0.00 75 1012.9
20260504032039 42 0 0.0 0.0 0.00 0.00 0.00 74 1012.9
20260504031601 42 0 0.0 0.0 0.00 0.00 0.00 74 1013.0
20260504031036 42 0 0.0 0.0 0.00 0.00 0.00 74 1013.0
20260504030536 42 0 0.0 0.0 0.00 0.00 0.00 73 1012.9
20260504030049 42 0 0.0 0.0 0.00 0.00 0.00 73 1012.9
20260504025537 43 0 0.0 0.0 0.00 0.00 0.00 73 1012.9
20260504025036 43 0 0.0 0.0 0.00 0.00 0.00 73 1012.9
20260504024553 43 0 0.0 0.0 0.00 0.00 0.00 72 1012.8
20260504024036 43 0 0.0 0.0 0.00 0.00 0.00 72 1012.9
20260504023536 43 0 0.0 0.0 0.00 0.00 0.00 71 1012.9
20260504023052 44 0 0.0 0.0 0.00 0.00 0.00 71 1012.8
20260504022536 44 0 0.0 0.0 0.00 0.00 0.00 70 1013.0
20260504022039 44 0 0.0 0.0 0.00 0.00 0.00 70 1012.8
20260504021548 44 0 0.0 0.0 0.00 0.00 0.00 70 1012.8
20260504021039 45 0 0.0 0.0 0.00 0.00 0.00 69 1012.9
20260504020536 45 0 0.0 0.0 0.00 0.00 0.00 68 1012.8
20260504020106 46 0 0.0 0.0 0.00 0.00 0.00 68 1013.0
20260504015541 46 0 0.0 0.9 0.00 0.00 0.00 67 1012.9
20260504015037 46 0 0.0 1.7 0.00 0.00 0.00 66 1012.9
20260504014554 47 0 0.0 1.7 0.00 0.00 0.00 65 1012.8
20260504014036 48 0 0.0 1.7 0.00 0.00 0.00 64 1012.8
20260504013538 48 0 0.0 1.7 0.00 0.00 0.00 63 1012.7
20260504013051 49 0 0.0 1.7 0.00 0.00 0.00 61 1012.7
20260504012539 50 0 0.0 0.0 0.00 0.00 0.00 59 1012.7
20260504012042 50 0 0.0 0.0 0.00 0.00 0.00 58 1012.7
20260504011551 51 0 0.0 0.0 0.00 0.00 0.00 55 1012.5
20260504011039 52 0 0.0 0.0 0.00 0.00 0.00 54 1012.4
20260504010536 52 0 0.0 0.0 0.00 0.00 0.00 51 1012.6
20260504010055 53 0 0.0 0.9 0.00 0.00 0.00 52 1012.4
20260504005539 53 0 0.0 0.9 0.00 0.00 0.00 51 1012.5
20260504005042 54 0 0.0 0.9 0.00 0.00 0.00 50 1012.5
20260504004547 54 0 0.0 0.0 0.00 0.00 0.00 48 1012.4
20260504004038 55 0 0.0 0.0 0.00 0.00 0.00 49 1012.3
20260504003539 55 0 0.0 0.9 0.00 0.00 0.00 47 1012.3
20260504003046 56 0 0.0 0.9 0.00 0.00 0.00 45 1012.2
20260504002539 56 0 0.0 1.7 0.00 0.00 0.00 42 1012.1
20260504002036 56 0 0.0 1.7 0.00 0.00 0.00 43 1012.1
20260504001552 56 0 0.0 3.5 0.00 0.00 0.00 40 1012.0
20260504001039 56 0 0.0 3.5 0.00 0.00 0.00 40 1012.0
20260504000538 57 0 0.9 4.3 0.00 0.00 0.00 40 1011.9
20260504000050 57 221 1.7 9.6 0.00 0.00 0.00 38 1011.9
20260503235539 57 192 1.7 9.6 0.00 0.00 0.00 38 1011.8
20260503235037 57 240 0.9 9.6 0.00 0.00 0.00 37 1011.9
20260503234620 58 228 3.5 9.6 0.00 0.00 0.00 36 1011.8
20260503234037 58 216 0.9 7.0 0.00 0.00 0.00 37 1011.8
20260503233538 58 348 0.9 7.8 0.00 0.00 0.00 36 1011.8
20260503233050 58 229 2.6 9.6 0.00 0.00 0.00 36 1011.7
20260503232536 58 321 3.5 9.6 0.00 0.00 0.00 35 1011.7
20260503232039 59 243 3.5 9.6 0.00 0.00 0.00 35 1011.7
20260503231549 59 250 2.6 10.4 0.00 0.00 0.00 35 1011.7
20260503231036 59 196 1.7 10.4 0.00 0.00 0.00 35 1011.6
20260503230541 59 222 2.6 12.2 0.00 0.00 0.00 34 1011.6
20260503230054 59 205 2.6 12.2 0.00 0.00 0.00 34 1011.5
20260503225538 59 244 5.2 12.2 0.00 0.00 0.00 34 1011.5
20260503225043 60 225 2.6 9.6 0.00 0.00 0.00 34 1011.5
20260503224550 60 0 3.5 10.4 0.00 0.00 0.00 34 1011.6
20260503224040 60 276 2.6 10.4 0.00 0.00 0.00 34 1011.6
20260503223539 60 258 3.5 11.3 0.00 0.00 0.00 33 1011.6
20260503223050 60 257 3.5 11.3 0.00 0.00 0.00 33 1011.7
20260503222543 60 258 3.5 10.4 0.00 0.00 0.00 33 1011.6
20260503222036 61 192 2.6 8.7 0.00 0.00 0.00 34 1011.7
20260503221556 61 283 2.6 12.2 0.00 0.00 0.00 34 1011.6
20260503221040 61 298 4.3 12.2 0.00 0.00 0.00 32 1011.6
20260503220540 61 215 1.7 8.7 0.00 0.00 0.00 33 1011.6
20260503220055 61 306 1.7 10.4 0.00 0.00 0.00 32 1011.6
20260503215540 61 261 2.6 12.2 0.00 0.00 0.00 32 1011.6